Notices

What's New in latest Release from April 7th, 2021:

- Updated Glossary, including Speed of Maximum Gust, and Total Hourly Precipitation

- Updated national and regional climate services offices contacts and prices information

- Addition of station inventory lists for 1981-2010, 1971-2000, and 1961-1990 Normals.

If you haven't already, please take our survey and provide feedback about our website: https://eccc.sondage-survey.ca/f/LanguageSelection.aspx?s=442ca660-fcf1-47c0-95a9-59707d6fd709

Hourly Data Report for July 15, 2020

TORONTO CITY
ONTARIO
Current Station Operator: ECCC - MSC

43°40'00.000" N
79°24'00.000" W
112.50 m
6158355
71508
XTO

Download Data

Hourly Data (July 2020)
Hourly Data Report for July 15, 2020
TIME
LST
Temp Definition
°C
Dew Point Definition
°C
Rel Hum Definition
%
Precip. Amount Definition
mm

Wind Dir Definition
10's deg

Wind Spd Definition
km/h
Visibility Definition
km
Stn Press Definition
kPa
Hmdx Definition


Wind Chill Definition


Weather Definition


00:00 21.3 14.4 65 0.0       100.57 25   LegendNANA
01:00 20.5 15.1 71 0.0       100.56 25   LegendNANA
02:00 21.4 16.9 76 0.0       100.63 27   LegendNANA
03:00 19.9 16.5 81 0.0       100.61     LegendNANA
04:00 20.0 16.6 81 0.0       100.64 25   LegendNANA
05:00 19.5 16.0 80 0.0       100.66     LegendNANA
06:00 19.9 16.2 79 0.0       100.64     LegendNANA
07:00 22.2 17.3 74 0.0       100.67 28   LegendNANA
08:00 23.9 16.4 63 0.0       100.71 29   LegendNANA
09:00 25.1 14.8 53 0.0       100.76 29   LegendNANA
10:00 26.4 14.7 49 0.0       100.77 30   LegendNANA
11:00 26.6 14.5 48 0.0       100.73 30   LegendNANA
12:00 26.5 14.7 48 0.0       100.73 30   LegendNANA
13:00 27.8 15.5 47 0.0       100.71 32   LegendNANA
14:00 27.6 14.4 44 0.2       100.67 31   LegendNANA
15:00 27.0 14.3 46 0.2       100.62 31   LegendNANA
16:00 26.7 15.4 50 0.2       100.59 31   LegendNANA
17:00 25.9 15.6 53 0.2       100.56 30   LegendNANA
18:00 25.6 15.8 54 0.0       100.50 30   LegendNANA
19:00 24.9 17.0 62 0.0       100.44 30   LegendNANA
20:00 24.0 18.2 70 0.0       100.45 30   LegendNANA
21:00 23.7 18.9 74 0.0       100.46 30   LegendNANA
22:00 23.7 18.8 74 0.0       100.47 30   LegendNANA
23:00 23.7 18.8 74 0.0       100.49 30   LegendNANA

Notes on Data Quality.

Legend

  • E = Estimated
  • M = Missing
  • NA = Not Available*
  • [empty] = Indicates an unobserved value
Date modified: